Regional Weather Roundup
Issued by NWS

Home | Current Version | Previous Version | Text Only | Print | Product List | Glossary On
Versions: 1 2 3 4 5 6 7 8 9 10 11 12 13 14 15 16 17 18 19 20 21 22 23 24 25 26 27
000
ASUS45 KREV 260410
RWRNV
NEVADA REGIONAL WEATHER ROUNDUP
NATIONAL WEATHER SERVICE RENO NV
900 PM PDT THU MAY 25 2017

NOTE: "FAIR" INDICATES FEW OR NO CLOUDS BELOW 12,000 FEET WITH NO
SIGNIFICANT WEATHER AND/OR OBSTRUCTIONS TO VISIBILITY.

NVZ001-003-004-260500-
WESTERN NEVADA

CITY           SKY/WX    TMP DP  RH WIND       PRES   REMARKS
RENO           PTCLDY    64  31  28 NW18      29.75R
CARSON CITY    FAIR      61  32  33 W8G20     29.79R
MINDEN         FAIR      59  32  36 W14       29.79R
FALLON         PTCLDY    68  23  18 W22       29.69R
LOVELOCK       PTCLDY    69  28  21 W20       29.67R
HAWTHORNE      CLEAR     70  27  19 N18       29.69R
$$

NVZ002-CAZ072-073-260500-
NORTHERN AND CENTRAL SIERRA

CITY           SKY/WX    TMP DP  RH WIND       PRES   REMARKS
S. LAKE TAHOE  CLEAR     52  36  54 S12       29.88R
TRUCKEE        CLEAR     48  34  57 CALM      29.89R
SQUAW VLY 8000   N/A     36  32  87 SW15        N/A
SUSANVILLE     CLEAR     63  32  31 W8        29.77R
MAMMOTH LAKES  FAIR      52  21  29 W7        29.89R
BRIDGEPORT     FAIR      52  27  38 W13G21    29.86R
$$

NVZ030-031-036-260500-
NORTHERN NEVADA

CITY           SKY/WX    TMP DP  RH WIND       PRES   REMARKS
ELKO           PTCLDY    55  34  45 CALM      29.69S
WINNEMUCCA     PTCLDY    58  32  37 N23G30    29.69R
WENDOVER       PTCLDY    63  23  21 NE12      29.72R
$$

NVZ035-037-260500-
CENTRAL NEVADA

CITY           SKY/WX    TMP DP  RH WIND       PRES   REMARKS
ELY            CLEAR     52  16  24 W8        29.75R
EUREKA           N/A     54  20  26 NW5       29.75R
$$

NVZ013-014-260500-
SOUTH CENTRAL NEVADA

CITY           SKY/WX    TMP DP  RH WIND       PRES   REMARKS
TONOPAH        CLEAR     70  22  16 N14       29.70R
$$

NVZ017-020-022-260500-
SOUTHERN NEVADA

CITY           SKY/WX    TMP DP  RH WIND       PRES   REMARKS
LAS VEGAS      PTCLDY    87  13   6 SW14G22   29.55R
N. LAS VEGAS   PTCLDY    88  19   8 W17       29.54R
NELLIS AFB     PTCLDY    87  19   8 S13       29.52R
HENDERSON      CLEAR     84  20   9 SW16      29.61R
MERCURY        CLEAR     81  21  11 S17G31    29.59R
$$




USA.gov is the U.S. government's official web portal to all federal, state and local government web resources and services.